CW5066 Weather Reports


time (UTC)temp
F
wind
direction
speed
knots
gust
knots
rain 1hr
in
rain 24hr
in
rain mn
in
humidity
%
barometer
mb
20260904161516 66 270 2.6 7.0 0.00 0.00 0.00 30 1026.7
20260904160516 65 315 1.7 7.0 0.00 0.00 0.00 31 1026.6
20260904155516 65 293 0.9 2.6 0.00 0.00 0.00 33 1026.6
20260904154516 64 293 1.7 4.3 0.00 0.00 0.00 33 1026.1
20260904153636 64 248 1.7 5.2 0.00 0.00 0.00 35 1026.7
20260904152516 63 270 0.9 2.6 0.00 0.00 0.00 35 1026.1
20260904151516 63 0.0 1.7 0.00 0.00 0.00 36 1026.1
20260904150516 62 0.0 1.7 0.00 0.00 0.00 37 1025.6
20260904145516 60 0.0 2.6 0.00 0.00 0.00 38 1025.6
20260904144516 59 225 0.9 1.7 0.00 0.00 0.00 39 1024.9
20260904143516 59 225 0.9 2.6 0.00 0.00 0.00 39 1024.8
20260904142536 58 225 0.9 2.6 0.00 0.00 0.00 40 1024.9
20260904141556 57 203 0.9 1.7 0.00 0.00 0.00 40 1024.9
20260904140515 56 248 0.9 2.6 0.00 0.00 0.00 40 1025.4
20260904135536 56 270 1.7 3.5 0.00 0.00 0.00 40 1025.1
20260904134516 56 248 2.6 4.3 0.00 0.00 0.00 40 1024.9
20260904133515 56 248 2.6 7.0 0.00 0.00 0.00 40 1025.9
20260904132516 56 248 2.6 4.3 0.00 0.00 0.00 39 1025.1
20260904131536 55 248 2.6 4.3 0.00 0.00 0.00 39 1025.1
20260904130516 55 248 1.7 3.5 0.00 0.00 0.00 39 1026.1
20260904125516 56 248 1.7 3.5 0.00 0.00 0.00 38 1026.5
20260904124536 56 225 1.7 3.5 0.00 0.00 0.00 37 1026.3
20260904123515 56 203 2.6 4.3 0.00 0.00 0.00 37 1027.4
20260904122515 57 203 3.5 5.2 0.00 0.00 0.00 36 1027.9
20260904121515 57 180 3.5 7.0 0.00 0.00 0.00 37 1027.1
20260904120515 56 180 3.5 4.3 0.00 0.00 0.00 37 1027.2
20260904115515 56 158 1.7 2.6 0.00 0.00 0.00 37 1027.2
20260904114535 56 0.0 1.7 0.00 0.00 0.00 36 1027.2
20260904113515 56 0.0 1.7 0.00 0.00 0.00 36 1027.8
20260904112515 57 158 0.9 1.7 0.00 0.00 0.00 36 1028.0
20260904111515 57 180 0.9 2.6 0.00 0.00 0.00 35 1027.8
20260904110517 58 135 0.9 1.7 0.00 0.00 0.00 35 1027.7
20260904105518 57 0.0 1.7 0.00 0.00 0.00 35 1027.7
20260904104517 57 315 0.9 2.6 0.00 0.00 0.00 35 1027.7
20260904103517 57 0.0 1.7 0.00 0.00 0.00 36 1027.1
20260904102517 57 180 1.7 2.6 0.00 0.00 0.00 36 1027.0
20260904101517 57 203 1.7 3.5 0.00 0.00 0.00 36 1027.2
20260904100517 57 180 1.7 2.6 0.00 0.00 0.00 36 1028.5
20260904095517 57 180 1.7 3.5 0.00 0.00 0.00 35 1028.5
20260904094517 57 203 1.7 2.6 0.00 0.00 0.00 36 1028.4
20260904093517 57 180 1.7 2.6 0.00 0.00 0.00 36 1027.2
20260904092517 57 203 1.7 2.6 0.00 0.00 0.00 35 1027.1
20260904091517 58 203 0.9 2.6 0.00 0.00 0.00 35 1027.1
20260904090537 57 0.0 1.7 0.00 0.00 0.00 36 1027.2
20260904085517 57 0.0 1.7 0.00 0.00 0.00 37 1027.2
20260904084517 56 225 0.9 2.6 0.00 0.00 0.00 37 1027.2
20260904083517 57 225 1.7 4.3 0.00 0.00 0.00 36 1026.7
20260904082517 57 225 1.7 3.5 0.00 0.00 0.00 35 1026.6
20260904081517 58 225 1.7 3.5 0.00 0.00 0.00 35 1026.7
20260904080517 58 225 0.9 2.6 0.00 0.00 0.00 35 1026.2
20260904075517 59 225 1.7 2.6 0.00 0.00 0.00 36 1026.1
20260904074516 60 0.0 1.7 0.00 0.00 0.00 38 1026.9
20260904073516 60 180 2.6 3.5 0.00 0.00 0.00 39 1026.9
20260904072537 60 180 0.9 2.6 0.00 0.00 0.00 38 1027.0
20260904071516 60 180 1.7 3.5 0.00 0.00 0.00 38 1027.0
20260904070517 60 180 0.9 2.6 0.00 0.00 0.00 38 1026.5
20260904065517 60 158 0.9 2.6 0.00 0.00 0.00 38 1026.5
20260904064517 60 180 1.7 2.6 0.00 0.00 0.00 39 1026.6
20260904063536 59 158 1.7 1.7 0.00 0.00 0.00 40 1025.4
20260904062517 59 135 0.9 1.7 0.00 0.00 0.00 40 1025.5
20260904061517 59 135 1.7 2.6 0.00 0.00 0.00 41 1025.6
20260904060516 59 158 2.6 3.5 0.00 0.00 0.00 41 1025.5
20260904055517 59 180 1.7 2.6 0.00 0.00 0.00 41 1025.6
20260904054517 59 180 1.7 2.6 0.00 0.00 0.00 41 1025.6
20260904053517 58 0.0 1.7 0.00 0.00 0.00 42 1025.0
20260904052517 58 158 0.9 2.6 0.00 0.00 0.00 43 1025.0
20260904051517 58 203 1.7 2.6 0.00 0.00 0.00 43 1025.0
20260904050517 58 203 0.9 1.7 0.00 0.00 0.00 43 1024.3
20260904045517 58 203 0.9 1.7 0.00 0.00 0.00 44 1024.5
20260904044517 59 0.0 1.7 0.00 0.00 0.00 43 1024.6
20260904043537 59 0 0.9 1.7 0.00 0.00 0.00 43 1024.5
20260904042517 59 23 1.7 3.5 0.00 0.00 0.00 44 1024.7
20260904041517 59 0 2.6 7.0 0.00 0.00 0.00 43 1024.7
20260904040517 59 0 2.6 7.0 0.00 0.00 0.00 43 1024.2
20260904035517 59 0 2.6 6.1 0.00 0.00 0.00 43 1024.3
20260904034516 60 0 2.6 6.1 0.00 0.00 0.00 43 1024.5
20260904033537 60 23 2.6 6.1 0.00 0.00 0.00 43 1023.9
20260904032517 60 0 3.5 7.0 0.00 0.00 0.00 43 1024.3
20260904031536 60 0 2.6 6.1 0.00 0.00 0.00 41 1024.1
20260904030516 60 0 2.6 6.1 0.00 0.00 0.00 41 1024.3
20260904025516 60 0 3.5 7.8 0.00 0.00 0.00 40 1023.6
20260904024536 60 0 4.3 9.6 0.00 0.00 0.00 39 1023.6
20260904023516 60 0 3.5 8.7 0.00 0.00 0.00 39 1023.5
20260904022537 61 23 2.6 6.1 0.00 0.00 0.00 38 1022.7
20260904021516 61 23 1.7 4.3 0.00 0.00 0.00 38 1023.2
20260904020536 62 23 1.7 3.5 0.00 0.00 0.00 38 1022.9
20260904015516 62 23 1.7 4.3 0.00 0.00 0.00 37 1022.3
20260904014517 63 23 0.9 3.5 0.00 0.00 0.00 36 1022.9
20260904013516 65 45 0.9 4.3 0.00 0.00 0.00 34 1023.4
20260904012517 66 68 0.9 3.5 0.00 0.00 0.00 33 1023.5
20260904011516 67 23 1.7 4.3 0.00 0.00 0.00 32 1024.1
20260904010516 68 23 0.9 2.6 0.00 0.00 0.00 32 1024.1
20260904005516 69 45 0.9 1.7 0.00 0.00 0.00 31 1024.7
20260904004516 71 68 0.9 2.6 0.00 0.00 0.00 30 1025.3
20260904003516 72 0.0 1.7 0.00 0.00 0.00 29 1025.5
20260904002516 74 23 1.7 4.3 0.00 0.00 0.00 27 1026.1
20260904001516 76 45 0.9 3.5 0.00 0.00 0.00 26 1026.9
20260904000516 77 68 1.7 5.2 0.00 0.00 0.00 26 1027.5
20260903235516 77 0 1.7 6.1 0.00 0.00 0.00 24 1027.3
20260903234536 77 23 3.5 7.8 0.00 0.00 0.00 25 1027.4
20260903233516 77 45 2.6 7.8 0.00 0.00 0.00 26 1027.5
20260903232516 77 23 3.5 7.0 0.00 0.00 0.00 26 1026.8
20260903231516 78 23 1.7 6.1 0.00 0.00 0.00 25 1027.2
20260903230516 78 23 2.6 7.8 0.00 0.00 0.00 26 1027.4
20260903225516 78 23 3.5 7.8 0.00 0.00 0.00 25 1027.4
20260903224516 77 23 2.6 8.7 0.00 0.00 0.00 27 1026.9
20260903223516 77 23 2.6 7.8 0.00 0.00 0.00 27 1026.9
20260903222516 76 68 1.7 6.1 0.00 0.00 0.00 27 1027.0
20260903221536 75 90 2.6 6.1 0.00 0.00 0.00 27 1027.2
20260903220536 77 45 1.7 7.0 0.00 0.00 0.00 28 1027.4
20260903215516 76 45 1.7 7.0 0.00 0.00 0.00 27 1027.4
20260903214516 78 23 3.5 8.7 0.00 0.00 0.00 26 1028.1
20260903213516 79 45 1.7 7.0 0.00 0.00 0.00 26 1028.6
20260903212515 78 23 2.6 8.7 0.00 0.00 0.00 27 1028.7
20260903211516 77 113 1.7 8.7 0.00 0.00 0.00 27 1028.1
20260903210515 76 0 4.3 11.3 0.00 0.00 0.00 26 1028.2
20260903205516 76 45 3.5 10.4 0.00 0.00 0.00 28 1028.5
20260903204536 74 45 5.2 13.0 0.00 0.00 0.00 28 1027.9
20260903203515 76 23 4.3 8.7 0.00 0.00 0.00 27 1028.4
20260903202515 76 90 2.6 7.0 0.00 0.00 0.00 27 1028.6
20260903201515 75 23 3.5 8.7 0.00 0.00 0.00 29 1028.8
20260903200516 73 0 2.6 9.6 0.00 0.00 0.00 27 1028.5
20260903195515 72 203 3.5 7.8 0.00 0.00 0.00 18 1027.5
20260903194515 72 180 3.5 8.7 0.00 0.00 0.00 19 1027.4
20260903193515 70 203 3.5 10.4 0.00 0.00 0.00 20 1027.0
20260903192515 70 203 7.0 13.0 0.00 0.00 0.00 21 1027.6
20260903191515 70 248 3.5 8.7 0.00 0.00 0.00 21 1027.8
20260903190515 70 225 3.5 10.4 0.00 0.00 0.00 24 1028.0
20260903185515 69 270 3.5 9.6 0.00 0.00 0.00 23 1027.9
20260903184515 68 180 7.8 20.0 0.00 0.00 0.00 23 1027.6
20260903183515 68 203 6.1 12.2 0.00 0.00 0.00 23 1027.7
20260903182537 67 203 6.1 14.8 0.00 0.00 0.00 25 1027.9
20260903181517 67 203 5.2 10.4 0.00 0.00 0.00 25 1027.8
20260903180517 66 180 7.0 15.6 0.00 0.00 0.00 26 1027.6
20260903175517 66 225 3.5 8.7 0.00 0.00 0.00 27 1027.7
20260903174517 66 248 4.3 17.4 0.00 0.00 0.00 29 1027.9
20260903173517 65 180 4.3 14.8 0.00 0.00 0.00 28 1027.7
20260903172537 65 225 4.3 9.6 0.00 0.00 0.00 29 1027.8
20260903171517 64 180 6.1 10.4 0.00 0.00 0.00 31 1027.9
20260903170517 64 225 3.5 10.4 0.00 0.00 0.00 30 1027.6
20260903165517 63 113 0.9 3.5 0.00 0.00 0.00 33 1027.1
20260903164517 63 158 2.6 8.7 0.00 0.00 0.00 32 1027.0
20260903163537 62 180 4.3 9.6 0.00 0.00 0.00 35 1027.2
20260903162517 62 158 2.6 7.8 0.00 0.00 0.00 35 1026.9